Regional Weather Roundup
Issued by NWS

Home | Current Version | Previous Version | Text Only | Print | Product List | Glossary On
Versions: 1 2 3 4 5 6 7 8 9 10 11 12 13 14 15 16 17 18 19 20 21 22 23 24 25 26 27 28 29 30 31 32 33 34 35 36 37 38 39 40 41 42 43 44 45 46 47 48 49 50
000
ASUS43 KMKX 011011
RWRWI

WISCONSIN REGIONAL WEATHER ROUNDUP
NATIONAL WEATHER SERVICE MILWAUKEE/SULLIVAN WI
500 AM CDT SAT OCT 01 2016

NOTE: "FAIR" INDICATES FEW OR NO CLOUDS BELOW 12,000 FEET WITH NO
SIGNIFICANT WEATHER AND/OR OBSTRUCTIONS TO VISIBILITY.

WIZ001-002-006>008-014>016-023>028-011100-
NORTHWEST WISCONSIN

CITY           SKY/WX    TMP DP  RH WIND       PRES   REMARKS
SUPERIOR ARPT  CLOUDY    52  51  99 E3        30.24F
ASHLAND        FOG       54  54 100 NE10      30.23F VSB 1/4
HAYWARD        CLEAR     48  46  93 NE3       30.21F
SIREN          CLOUDY    51  50  97 NE6       30.21F FOG
CUMBERLAND     CLEAR     50  48  93 NE3       30.20S
RICE LAKE      CLEAR     50  48  93 CALM      30.20F
CHETEK         NOT AVBL
LADYSMITH      CLEAR     51  49  93 N3        30.20S
EAU CLAIRE     CLEAR     53  51  93 NE6       30.16F
MENOMONIE      CLEAR     55  52  91 N6        30.18S
NEW RICHMOND   CLEAR     49  49 100 CALM      30.18F
OSCEOLA        CLEAR     52  52 100 CALM      30.21S
$$

WIZ003>005-009-010-017-018-011100-
NORTH CENTRAL WISCONSIN

CITY           SKY/WX    TMP DP  RH WIND       PRES   REMARKS
MANITOWISH WTR NOT AVBL
ARBOR VITAE    CLOUDY    55  51  89 NE3       30.20F
WOODRUFF       CLOUDY    55  51  89 NE3       30.20F
RHINELANDER    PTCLDY    53  51  93 NE3       30.20S
EAGLE RIVER    CLOUDY    51  50  95 CALM      30.20F
LAND O LAKES   CLOUDY    51  49  94 NE3       30.23S
PHILLIPS       CLOUDY    50  49  98 CALM      30.19S
TOMAHAWK       CLOUDY    52  49  89 CALM      30.20R
MEDFORD        CLOUDY    51  51 100 E3        30.18S
MERRILL        CLOUDY    53  51  95 CALM      30.19S
$$

WIZ029-030-035-036-043>047-011100-
CENTRAL WISCONSIN

CITY           SKY/WX    TMP DP  RH WIND       PRES   REMARKS
WAUSAU         MOCLDY    54  52  93 VRB5      30.16S
MOSINEE        PTCLDY    54  54 100 NE8       30.17S
MARSHFIELD     MOCLDY    57  51  80 N8        30.16R
STEVENS POINT  LGT RAIN  55  55  99 NE7       30.16S
WAUPACA        CLOUDY    59  58  97 NE3       30.14S
WAUTOMA        CLOUDY    58  57  97 NE8       30.13S
WISC RAPIDS    CLOUDY    59  55  87 E8        30.15S
CAMP DOUGLAS   DRIZZLE   57  55  94 N6        30.12S
$$

WIZ011>013-019>022-031-037>040-048>050-011100-
NORTHEAST WISCONSIN

CITY           SKY/WX    TMP DP  RH WIND       PRES   REMARKS
ANTIGO         LGT RAIN  55  54  95 E8        30.18F
SHAWANO        CLOUDY    59  56  89 N7        30.16S
OCONTO         NOT AVBL
STURGEON BAY   CLOUDY    61  55  81 NE6       30.15S
GREEN BAY      CLOUDY    60  59  96 NE8       30.13F
MANITOWOC      LGT RAIN  58  57  97 MISG      30.12F
APPLETON       CLOUDY    57  57 100 NE6       30.11F
CLINTONVILLE   CLOUDY    57  55  94 N5        30.14S
OSHKOSH        CLOUDY    59  57  93 E9        30.11S
$$

WIZ032>034-041-042-053>061-011100-
SOUTHWEST WISCONSIN

CITY           SKY/WX    TMP DP  RH WIND       PRES   REMARKS
LA CROSSE      CLOUDY    62  55  77 NE7       30.12S
SPARTA         CLOUDY    58  55  89 NE3       30.13F
VIROQUA        CLOUDY    56  56 100 NE7       30.12S
BOSCOBEL       CLOUDY    60  58  92 CALM      30.10S
PRAIRIE DU CHI CLOUDY    59  56  88 N6        30.09S
PLATTEVILLE    CLOUDY    58  58 100 N5        30.08S
$$

WIZ056-057-062-063-064-067-068-011100-
SOUTH CENTRAL WISCONSIN

CITY           SKY/WX    TMP DP  RH WIND       PRES   REMARKS
REEDSBURG      NOT AVBL
BARABOO/DELLS  CLOUDY    58  57  96 NE8       30.10S FOG
LONE ROCK      CLOUDY    60  58  92 N7        30.09F FOG
MINERAL POINT  CLOUDY    59  59 100 N6        30.09R
MADISON        CLOUDY    59  58  96 NE8       30.07F FOG
MIDDLETON      CLOUDY    60  60 100 NE7       30.08S
WATERTOWN      DRIZZLE   59  59 100 NE5       30.07F
MONROE         CLOUDY    59  57  94 NE7       30.06F
JANESVILLE     DRIZZLE   61  59  94 NE3       30.05F
$$

WIZ051-052-058>065-066-070>072-011100-
SOUTHEAST WISCONSIN

CITY           SKY/WX    TMP DP  RH WIND       PRES   REMARKS
MILWAUKEE      CLOUDY    61  58  90 NE5       30.06F
WAUKESHA       CLOUDY    55  55 100 N3        30.07F
MILWAUKEE/TIMM MOCLDY    57  55  94 N3        30.07F
RACINE         MOCLDY    60  58  92 NE7       30.07S
BURLINGTON     CLOUDY    56  56  99 CALM      30.05F
KENOSHA        CLOUDY    59  57  93 CALM      30.05F
FOND DU LAC    CLOUDY    59  57  93 NE7       30.10F
SHEBOYGAN      CLOUDY    59  57  93 NE8       30.10F
WEST BEND      CLOUDY    68  68 100 NE8       30.08F
JUNEAU         CLOUDY    58  57  97 N8        30.09F
$$

LSZ147-162-011100-
LAKE SUPERIOR

STATION/POSITION TIME  TEMP    WIND        PRES    WAVE
                       AIR SEA DIR/SP/G            HT/PER
                 (UTC) (F)     (DEG/KT/KT) (MB)    (FT/S)
W MID LAKE BUOY  0950   56 56   50/  8/ 10 1023.6F   1/ 4
DEVILS ISLAND    1000   54      40/  7/  8 1024.2F
SAXON HARBOR     0900   53     210/  2/  3 1023.4F
$$

LMZ867-665-643>646-011100-
LAKE MICHIGAN

STATION/POSITION TIME  TEMP    WIND        PRES    WAVE
                       AIR SEA DIR/SP/G            HT/PER
                 (UTC) (F)     (DEG/KT/KT) (MB)    (FT/S)
CHAMBERS ISLAND  0900   62      30/ 11/ 15 1021.0S
S GREEN BAY BUOY 1000   62 62   50/ 12/ 14 1020.1F
N MID LAKE BUOY  0950   63 64   90/ 16/ 19 1020.7S   4/ 5
NORTHPORT PIER   0900   63      80/ 12/ 16 1021.3S
SISTER BAY       0908   62     120/  8/ 10   N/A
KEWAUNEE LAKESHO 0900   61      80/ 10/ 15 1019.8F
SHEBOYGAN LAKESH 1000   60      50/ 11/ 12 1018.9F
PORT WASHINGTON  0900   61      50/  9/ 12 1019.6S
ATWATER BUOY     1000   57 57  340/  4/  6 1018.1F
MILWAUKEE LAKESH 0910   57     100/  6/  6   N/A
S MID LAKE BUOY  0950   63 67   70/ 14/ 16 1016.8R   3/ 6
KENOSHA   LAKESH 1000   61      30/  5/  5 1017.3S
$$

TC  - TEMPERATURE IN CELSIUS
VSB - VISIBILITY IN STATUTE MILES
WCI - WIND CHILL INDEX
HX  - HEAT INDEX





USA.gov is the U.S. government's official web portal to all federal, state and local government web resources and services.